Wind_Speed
9 6 8 21 16 18 22 23 16 16 25 19 21 25 24 24 27 30 34 34 35 37 39 40 41 43 44 44 45 47 48 51 54 56 56 58 59 61 63 64 64 63 63 64
12 9 12 17 17 17 19 20 14 21 25 17 23 24 26 29 27 29 33 36 38 42 42 43 44 45 46 47 48 49 50 51 53 57 58 59 61 62 62 64 63 64 64 64
8 17 16 15 16 16 16 19 20 20 24 20 23 26 33 28 29 30 32 37 41 41 43 43 44 44 46 47 49 49 51 53 55 58 60 62 63 63 65 66 66 65 65 65
17 19 18 17 18 14 15 16 18 19 20 19 25 23 30 38 30 31 35 38 42 43 45 46 45 46 47 48 49 49 51 52 53 57 60 62 65 65 67 68 68 68 68 66
23 19 21 20 19 17 19 15 16 18 20 23 21 21 18 33 32 41 44 39 41 44 46 47 47 49 49 50 52 52 52 52 54 56 59 61 65 68 69 71 71 71 73 72
23 22 21 20 20 17 16 17 19 21 22 19 14 12 16 24 35 36 46 47 46 45 48 53 53 53 53 54 53 54 54 56 57 59 60 61 62 66 69 73 75 76 75 76
25 22 19 19 18 18 19 19 14 13 12 11 26 30 19 30 30 36 40 44 49 51 53 56 57 59 59 58 57 55 55 56 57 60 62 65 66 68 68 70 72 75 77 80
14 23 22 15 18 19 18 17 18 17 12 15 24 24 24 40 39 41 44 46 50 54 59 61 63 64 63 61 58 57 55 55 54 55 56 59 62 64 67 68 69 73 74 75
19 19 20 21 20 18 18 18 20 21 21 24 14 17 30 40 45 48 54 57 59 64 65 68 70 65 64 59 55 52 51 51 50 51 51 53 55 57 58 60 62 61 63 65
24 21 23 20 19 19 19 21 22 24 24 23 14 19 22 37 42 46 48 53 61 65 67 69 69 62 60 55 53 50 49 50 47 47 48 49 50 50 51 52 53 54 57 59
18 18 23 19 19 22 21 23 21 21 22 24 29 19 38 40 46 49 54 59 65 70 71 68 62 56 55 52 47 45 45 43 41 40 38 38 38 41 44 47 47 48 49 50
18 21 22 23 22 22 22 23 24 26 25 26 31 33 43 45 52 58 63 66 69 71 70 62 53 53 50 48 44 40 39 37 34 30 28 28 31 34 37 38 38 38 39 40
20 22 23 24 23 22 20 24 25 26 27 27 31 37 41 45 49 54 60 65 71 73 64 52 50 48 48 46 41 36 33 30 28 29 30 30 32 32 31 31 32 34 36 36
22 23 23 20 24 26 26 25 26 28 29 33 31 39 43 48 53 57 62 67 71 70 56 48 46 46 43 40 38 34 32 31 31 32 32 31 28 28 30 32 33 34 34 33
22 22 23 22 22 24 24 25 27 28 30 34 38 42 47 51 55 59 64 70 72 62 49 46 44 39 38 38 36 35 34 35 36 35 33 32 33 32 29 28 27 27 28 28
23 22 22 21 23 24 25 25 27 28 32 36 39 43 49 53 57 61 65 71 70 57 47 43 38 38 36 35 31 30 30 32 33 34 34 33 31 30 30 28 27 26 26 27
24 23 22 20 26 25 26 23 28 30 33 38 42 46 52 55 58 62 66 70 66 56 47 40 38 38 34 31 30 30 35 39 41 42 41 39 37 34 32 29 28 27 26 26
25 24 24 22 25 27 28 25 29 30 33 37 42 48 53 56 59 63 69 70 60 52 43 40 38 33 32 32 35 41 44 45 43 41 40 39 39 37 33 29 27 26 25 24
26 24 25 24 25 27 30 24 29 33 32 35 44 48 53 57 62 64 68 66 53 45 45 40 35 31 31 35 38 43 42 40 40 39 35 31 31 31 31 29 25 23 24 22
24 24 25 25 29 29 30 26 31 36 39 41 47 52 56 58 63 63 67 62 48 44 39 38 28 28 30 38 45 44 39 36 35 30 26 24 22 19 20 16 18 19 19 15
24 26 25 27 30 30 29 30 33 35 39 44 48 53 56 58 61 64 68 53 46 43 41 29 26 26 35 41 46 41 36 29 28 23 17 13 9 5 6 9 11 13 10 4
25 26 26 27 29 29 29 33 33 37 39 43 47 52 54 59 60 64 62 48 45 39 30 24 26 29 35 42 39 35 29 25 22 16 13 8 5 1 1 4 4 2 3 3
27 26 26 28 29 28 29 31 36 38 40 44 48 51 55 56 60 64 54 45 39 35 28 25 28 31 36 39 32 34 27 23 19 16 12 9 7 7 5 6 9 11 9 6
27 26 25 27 26 28 30 32 35 37 40 44 48 51 56 56 59 62 45 38 35 31 27 29 29 31 34 36 28 30 25 21 17 19 18 14 10 10 13 13 10 10 11 13
29 24 27 25 26 27 29 31 34 36 40 44 47 51 51 54 60 57 39 32 30 29 29 29 30 29 30 25 25 24 22 19 17 14 13 16 15 16 14 13 11 11 13 13
27 26 25 24 25 26 28 30 33 35 39 42 47 48 50 54 58 47 33 28 27 29 30 29 27 25 28 22 23 20 21 15 19 19 19 18 16 16 17 15 12 18 16 18
Wind_Direction
297 297 231 225 256 251 233 251 256 260 278 282 278 285 294 298 299 301 297 297 298 298 295 293 291 289 287 284 281 276 273 269 268 269 269 268 270 271 271 270 271 272 272 273
300 252 286 274 271 265 259 258 264 262 280 281 283 291 295 294 300 298 301 303 300 298 296 294 292 290 287 284 280 277 274 272 269 268 270 269 266 267 267 269 266 267 268 270
264 293 297 291 283 272 266 258 248 268 276 291 279 290 295 299 304 300 301 300 301 300 298 298 296 292 288 285 283 280 277 273 269 266 267 267 267 267 267 267 268 267 266 268
288 296 298 296 290 274 264 266 265 270 274 284 289 295 293 300 309 305 307 308 307 306 303 301 299 297 294 290 286 281 278 276 274 271 269 267 266 266 267 268 267 268 269 265
288 303 303 296 295 281 267 275 276 282 289 291 288 280 285 303 307 313 310 310 308 308 309 305 303 301 297 293 291 288 284 279 275 271 267 266 266 265 264 265 266 269 269 268
299 301 299 298 298 291 286 287 290 289 290 294 291 250 287 286 315 317 314 314 313 313 311 308 308 304 298 294 288 285 282 279 277 273 271 268 265 263 264 263 263 264 265 267
307 302 298 299 295 293 282 283 287 292 280 316 277 290 285 303 315 315 316 318 316 316 315 314 311 307 302 297 293 287 280 277 274 272 271 271 269 266 262 262 263 263 264 265
275 294 308 290 285 283 284 284 285 287 263 270 285 299 285 308 322 321 319 318 318 320 320 317 313 308 303 299 294 288 283 280 277 273 271 271 271 271 272 270 265 264 265 265
272 274 291 290 285 280 282 281 290 293 298 308 308 295 309 318 325 323 324 328 327 326 323 319 314 308 305 303 298 293 287 281 279 278 277 275 272 271 270 270 269 268 268 268
283 276 288 286 285 287 289 293 296 303 310 314 292 313 277 319 321 322 322 323 325 324 321 318 314 311 307 304 299 296 291 287 283 279 277 275 273 273 274 273 271 270 270 270
285 285 289 292 291 293 291 293 294 300 301 308 310 305 308 320 319 321 326 325 323 323 324 317 313 310 306 306 304 300 297 291 287 280 276 276 277 275 275 275 274 272 271 270
287 287 291 294 297 292 292 294 299 302 308 319 316 323 318 319 327 332 328 325 324 323 320 318 315 309 309 308 308 307 301 295 293 288 286 285 283 282 282 281 279 275 272 270
292 290 291 294 290 288 294 295 295 298 301 310 313 321 325 322 321 323 324 324 325 325 324 318 313 311 310 313 314 311 306 303 298 297 295 293 290 286 284 284 283 279 279 279
294 290 288 286 280 294 300 301 300 301 305 309 318 318 321 323 324 326 324 325 326 328 324 321 316 313 313 313 310 311 307 303 299 297 297 293 288 287 288 289 288 285 281 281
291 288 288 288 288 289 293 296 296 301 306 309 316 319 320 323 324 325 324 327 330 330 325 321 318 316 314 311 312 311 309 305 302 301 298 295 295 293 291 288 291 291 291 285
297 290 287 290 291 292 294 295 295 297 300 304 313 317 319 322 323 326 326 330 332 330 328 323 321 318 317 314 316 314 311 308 306 303 298 295 292 292 292 285 291 293 296 294
296 289 288 293 293 295 297 302 294 298 302 307 312 317 318 323 326 328 329 333 333 329 329 326 325 322 318 316 314 309 307 305 303 299 296 293 290 289 285 282 287 293 294 295
296 286 286 290 291 295 298 302 298 299 302 307 309 314 320 324 329 331 333 335 332 328 328 328 326 324 322 321 318 317 314 310 306 301 296 289 283 279 280 281 284 293 296 295
295 286 285 290 289 296 301 312 300 302 305 308 309 316 322 328 331 332 334 333 330 329 327 329 327 325 327 330 329 326 321 316 310 303 296 290 284 273 267 272 280 289 292 295
294 287 288 291 295 299 299 306 307 309 311 315 319 324 326 329 331 332 333 333 331 327 327 329 323 327 335 335 334 327 323 321 320 313 301 288 286 275 263 260 271 283 294 291
293 289 288 290 294 299 307 308 311 313 316 319 321 323 326 330 331 333 335 334 331 329 328 327 324 331 336 335 332 330 329 331 329 322 314 306 291 288 248 256 274 295 296 261
289 287 287 289 292 295 307 308 311 311 315 317 320 323 327 331 333 335 337 334 333 337 336 328 329 331 337 339 343 345 346 347 349 354 346 7 28 19 297 314 314 341 102 123
280 285 287 290 291 299 304 307 309 312 317 320 322 326 328 332 335 337 337 336 339 338 336 332 331 336 337 344 344 353 3 8 12 28 37 35 51 56 64 74 92 95 99 93
281 281 286 287 291 298 304 306 308 313 318 320 324 327 330 333 336 338 335 338 340 343 340 337 338 340 340 344 352 355 3 16 26 57 50 56 71 90 86 94 93 98 94 87
280 286 281 290 292 301 302 305 311 316 318 320 325 328 331 334 337 339 335 339 343 348 348 347 345 346 345 352 356 8 18 31 45 53 61 77 79 81 88 92 92 100 92 80
274 278 283 286 295 298 301 307 311 316 316 321 326 329 333 335 338 338 335 336 340 346 347 345 347 348 355 1 6 15 24 38 45 66 79 78 78 89 93 86 91 104 104 102
Height
5897 5898 5902 5896 5896 5896 5897 5896 5896 5895 5888 5889 5888 5885 5883 5882 5879 5876 5872 5869 5865 5862 5859 5855 5852 5848 5843 5841 5838 5835 5833 5831 5828 5824 5823 5820 5819 5818 5815 5813 5814 5812 5810 5808
5895 5895 5894 5892 5891 5891 5891 5891 5892 5888 5884 5885 5883 5881 5878 5876 5874 5871 5866 5862 5857 5852 5849 5845 5841 5836 5833 5829 5826 5822 5819 5817 5814 5810 5809 5807 5803 5801 5800 5798 5798 5796 5795 5795
5891 5890 5889 5889 5887 5887 5887 5885 5885 5884 5880 5879 5878 5876 5870 5871 5868 5864 5861 5854 5849 5845 5838 5834 5830 5826 5820 5816 5812 5809 5805 5803 5801 5797 5794 5792 5789 5787 5784 5782 5783 5782 5782 5781
5887 5886 5885 5884 5883 5883 5882 5880 5879 5878 5877 5876 5871 5872 5864 5858 5861 5857 5853 5847 5841 5834 5828 5823 5818 5814 5808 5803 5798 5795 5791 5788 5785 5782 5779 5777 5773 5772 5770 5769 5767 5767 5767 5766
5882 5881 5881 5879 5878 5877 5876 5875 5874 5873 5871 5869 5868 5865 5863 5856 5852 5845 5840 5839 5833 5826 5818 5811 5806 5799 5794 5788 5782 5778 5775 5772 5768 5764 5761 5760 5757 5755 5754 5752 5751 5751 5749 5748
5877 5876 5875 5874 5872 5871 5870 5869 5868 5866 5865 5864 5863 5863 5862 5853 5845 5840 5831 5826 5821 5816 5809 5799 5793 5786 5779 5773 5767 5762 5758 5753 5750 5746 5743 5741 5739 5737 5735 5733 5733 5732 5732 5730
5872 5870 5870 5869 5868 5866 5866 5865 5865 5864 5864 5864 5856 5853 5853 5844 5842 5836 5828 5820 5811 5805 5797 5789 5780 5771 5764 5756 5749 5744 5739 5736 5732 5728 5725 5722 5719 5717 5716 5715 5714 5714 5714 5714
5875 5871 5866 5867 5865 5863 5862 5861 5860 5858 5859 5858 5852 5846 5838 5834 5830 5824 5817 5810 5801 5791 5783 5774 5764 5755 5746 5737 5731 5724 5719 5715 5712 5710 5708 5706 5703 5700 5697 5696 5696 5696 5696 5696
5868 5867 5863 5861 5860 5860 5858 5856 5855 5852 5850 5846 5849 5843 5831 5824 5817 5810 5800 5792 5784 5775 5766 5756 5747 5736 5726 5719 5712 5706 5701 5696 5694 5692 5691 5689 5686 5683 5682 5679 5678 5679 5678 5678
5863 5862 5858 5857 5856 5855 5853 5851 5849 5845 5843 5841 5843 5836 5827 5821 5813 5806 5798 5788 5778 5768 5757 5742 5729 5719 5710 5703 5695 5690 5686 5681 5679 5677 5674 5672 5671 5668 5667 5666 5665 5664 5663 5663
5858 5857 5854 5853 5852 5849 5848 5845 5844 5841 5838 5835 5831 5832 5818 5812 5804 5796 5785 5776 5766 5754 5740 5729 5716 5708 5698 5690 5683 5677 5672 5667 5664 5662 5660 5659 5657 5656 5654 5652 5651 5650 5649 5648
5854 5852 5850 5848 5847 5845 5843 5840 5837 5833 5832 5828 5822 5820 5809 5803 5791 5780 5771 5763 5754 5742 5730 5715 5705 5696 5687 5679 5672 5666 5660 5656 5654 5651 5649 5648 5646 5645 5642 5640 5638 5636 5635 5634
5849 5846 5845 5842 5842 5839 5837 5834 5832 5829 5825 5823 5818 5812 5802 5796 5789 5780 5768 5757 5743 5728 5714 5704 5693 5684 5675 5668 5662 5657 5652 5648 5645 5642 5640 5638 5635 5633 5631 5629 5627 5626 5624 5623
5843 5841 5839 5839 5836 5832 5830 5828 5825 5822 5818 5813 5811 5804 5797 5789 5779 5770 5758 5746 5731 5715 5702 5691 5683 5674 5667 5661 5654 5649 5645 5640 5637 5633 5630 5627 5625 5624 5622 5620 5617 5615 5613 5612
5838 5836 5834 5832 5831 5828 5826 5823 5820 5816 5812 5807 5803 5797 5788 5780 5770 5761 5748 5734 5718 5704 5693 5683 5674 5666 5660 5653 5647 5641 5636 5631 5627 5624 5620 5617 5615 5613 5612 5611 5609 5607 5604 5602
5832 5831 5829 5827 5825 5822 5821 5818 5815 5811 5807 5802 5796 5790 5781 5773 5763 5751 5737 5722 5707 5694 5685 5676 5668 5659 5652 5646 5641 5635 5629 5624 5619 5615 5612 5609 5606 5604 5603 5602 5600 5599 5597 5594
5826 5824 5823 5822 5818 5817 5815 5814 5809 5805 5800 5795 5788 5781 5773 5764 5753 5740 5727 5711 5696 5684 5677 5669 5661 5652 5646 5640 5635 5630 5623 5617 5611 5606 5602 5598 5596 5595 5594 5593 5592 5591 5589 5587
5821 5818 5816 5816 5813 5811 5808 5806 5802 5799 5795 5790 5782 5774 5765 5755 5743 5729 5713 5700 5688 5677 5668 5662 5653 5646 5640 5634 5628 5621 5613 5605 5599 5593 5589 5585 5583 5583 5584 5584 5584 5583 5582 5579
5815 5813 5811 5809 5807 5806 5802 5801 5797 5791 5791 5784 5775 5767 5758 5745 5733 5721 5707 5694 5681 5671 5661 5654 5646 5640 5635 5629 5621 5612 5602 5593 5586 5579 5575 5572 5571 5571 5573 5575 5576 5576 5575 5573
5809 5807 5806 5804 5799 5798 5794 5794 5789 5783 5777 5773 5764 5754 5745 5737 5725 5714 5700 5685 5674 5664 5656 5648 5642 5636 5631 5623 5614 5603 5593 5584 5576 5569 5564 5563 5562 5562 5565 5568 5570 5571 5570 5568
5803 5801 5800 5797 5793 5792 5789 5785 5782 5777 5774 5763 5756 5748 5739 5730 5718 5704 5691 5678 5667 5658 5649 5643 5638 5633 5626 5617 5607 5596 5587 5579 5570 5563 5560 5558 5558 5560 5562 5565 5567 5567 5566 5566
5796 5795 5794 5792 5789 5787 5783 5779 5777 5770 5765 5758 5751 5742 5732 5722 5710 5697 5683 5671 5661 5652 5645 5640 5636 5630 5623 5614 5603 5593 5583 5576 5568 5562 5559 5559 5559 5560 5562 5564 5565 5565 5565 5566
5790 5789 5789 5786 5784 5780 5777 5773 5767 5763 5758 5751 5743 5735 5725 5715 5703 5690 5678 5668 5658 5651 5644 5639 5634 5628 5620 5612 5602 5593 5584 5577 5571 5566 5563 5562 5562 5563 5564 5565 5567 5567 5567 5566
5783 5782 5781 5779 5778 5775 5770 5767 5762 5757 5752 5745 5737 5729 5718 5708 5697 5685 5673 5665 5657 5650 5644 5638 5632 5626 5618 5611 5603 5595 5587 5581 5576 5572 5570 5568 5567 5567 5569 5570 5571 5571 5570 5571
5776 5776 5774 5773 5771 5768 5765 5761 5756 5751 5745 5738 5731 5723 5713 5702 5692 5680 5670 5663 5656 5649 5643 5637 5631 5624 5617 5610 5604 5597 5590 5585 5581 5579 5577 5574 5574 5575 5576 5576 5576 5575 5575 5574
5769 5769 5768 5767 5765 5762 5759 5755 5750 5746 5739 5733 5726 5717 5708 5697 5687 5675 5667 5661 5656 5649 5643 5636 5630 5624 5618 5612 5606 5600 5595 5591 5588 5585 5583 5582 5582 5582 5582 5582 5582 5582 5581 5581